Time,TemperatureF,DewpointF,PressureIn,WindDirection,WindDirectionDegrees,WindSpeedMPH,WindSpeedGustMPH,Humidity,HourlyPrecipIn,Conditions,Clouds,dailyrainin,SoftwareType,DateUTC
2013-02-16 00:00:00,16.5,10.0,30.14,NNW,342,0.0,22.0,75,0.00,,,0.00,Wunderground v.1.15,2013-02-16 05:00:00,
2013-02-16 00:05:00,16.5,10.3,30.14,NNW,342,0.0,22.0,76,0.00,,,0.00,Wunderground v.1.15,2013-02-16 05:05:00,
2013-02-16 00:10:00,16.4,10.4,30.14,NW,304,0.0,22.0,77,0.00,,,0.00,Wunderground v.1.15,2013-02-16 05:10:00,
2013-02-16 00:15:00,16.3,10.6,30.14,NW,304,0.0,22.0,78,0.00,,,0.00,Wunderground v.1.15,2013-02-16 05:15:00,
2013-02-16 00:20:00,16.2,10.8,30.14,ENE,74,0.0,22.0,79,0.00,,,0.00,Wunderground v.1.15,2013-02-16 05:20:00,
2013-02-16 00:25:00,16.1,11.0,30.14,ENE,74,0.0,22.0,80,0.00,,,0.00,Wunderground v.1.15,2013-02-16 05:25:00,
2013-02-16 00:30:00,15.9,11.1,30.13,ENE,69,0.0,22.0,81,0.00,,,0.00,Wunderground v.1.15,2013-02-16 05:30:00,
2013-02-16 00:35:00,15.9,11.1,30.13,ENE,63,0.0,22.0,81,0.00,,,0.00,Wunderground v.1.15,2013-02-16 05:35:00,
2013-02-16 00:40:00,15.8,11.0,30.13,ENE,63,0.0,22.0,81,0.00,,,0.00,Wunderground v.1.15,2013-02-16 05:40:00,
2013-02-16 00:45:00,15.8,11.0,30.13,ENE,63,0.0,22.0,81,0.00,,,0.00,Wunderground v.1.15,2013-02-16 05:45:00,
2013-02-16 00:50:00,15.8,11.0,30.14,ENE,63,0.0,22.0,81,0.00,,,0.00,Wunderground v.1.15,2013-02-16 05:50:00,
2013-02-16 00:55:00,15.8,11.0,30.13,ENE,63,0.0,22.0,81,0.00,,,0.00,Wunderground v.1.15,2013-02-16 05:55:00,
2013-02-16 01:05:00,15.8,11.3,30.13,ENE,63,1.0,22.0,82,0.00,,,0.00,Wunderground v.1.15,2013-02-16 06:05:00,
2013-02-16 01:10:00,15.7,11.2,30.13,ENE,63,1.0,1.0,82,0.00,,,0.00,Wunderground v.1.15,2013-02-16 06:10:00,
2013-02-16 01:15:00,15.7,10.9,30.13,ENE,63,1.0,22.0,81,0.00,,,0.00,Wunderground v.1.15,2013-02-16 06:15:00,
2013-02-16 01:20:00,15.8,11.0,30.14,ENE,63,0.0,22.0,81,0.00,,,0.00,Wunderground v.1.15,2013-02-16 06:20:00,
2013-02-16 01:25:00,15.8,11.0,30.13,ENE,63,0.0,22.0,81,0.00,,,0.00,Wunderground v.1.15,2013-02-16 06:25:00,
2013-02-16 01:30:00,15.8,10.7,30.13,ENE,63,0.0,22.0,80,0.00,,,0.00,Wunderground v.1.15,2013-02-16 06:30:00,
2013-02-16 01:40:00,15.8,10.4,30.13,ENE,63,0.0,22.0,79,0.00,,,0.00,Wunderground v.1.15,2013-02-16 06:40:00,
2013-02-16 01:45:00,15.8,10.4,30.13,ENE,64,0.0,22.0,79,0.00,,,0.00,Wunderground v.1.15,2013-02-16 06:45:00,
2013-02-16 01:50:00,15.8,10.4,30.13,ENE,64,1.0,1.0,79,0.00,,,0.00,Wunderground v.1.15,2013-02-16 06:50:00,
2013-02-16 01:55:00,15.8,10.7,30.13,ENE,64,0.0,22.0,80,0.00,,,0.00,Wunderground v.1.15,2013-02-16 06:55:00,
2013-02-16 02:00:00,15.7,10.6,30.12,ENE,64,0.0,22.0,80,0.00,,,0.00,Wunderground v.1.15,2013-02-16 07:00:00,
2013-02-16 02:05:00,15.7,10.6,30.12,ENE,64,0.0,22.0,80,0.00,,,0.00,Wunderground v.1.15,2013-02-16 07:05:00,
2013-02-16 02:15:00,15.6,10.2,30.12,ENE,64,0.0,22.0,79,0.00,,,0.00,Wunderground v.1.15,2013-02-16 07:15:00,
2013-02-16 02:20:00,15.6,10.8,30.12,ENE,64,0.0,22.0,81,0.00,,,0.00,Wunderground v.1.15,2013-02-16 07:20:00,
2013-02-16 02:25:00,15.5,10.7,30.12,ENE,64,0.0,22.0,81,0.00,,,0.00,Wunderground v.1.15,2013-02-16 07:25:00,
2013-02-16 02:30:00,15.4,10.9,30.12,ENE,64,1.0,1.0,82,0.00,,,0.00,Wunderground v.1.15,2013-02-16 07:30:00,
2013-02-16 02:35:00,15.4,10.6,30.12,ENE,64,1.0,22.0,81,0.00,,,0.00,Wunderground v.1.15,2013-02-16 07:35:00,
2013-02-16 02:45:00,15.4,10.6,30.12,ENE,64,0.0,22.0,81,0.00,,,0.00,Wunderground v.1.15,2013-02-16 07:45:00,
2013-02-16 02:50:00,15.4,10.6,30.12,ENE,64,0.0,22.0,81,0.00,,,0.00,Wunderground v.1.15,2013-02-16 07:50:00,
2013-02-16 02:55:00,15.4,10.6,30.12,ENE,64,0.0,22.0,81,0.00,,,0.00,Wunderground v.1.15,2013-02-16 07:55:00,
2013-02-16 03:00:00,15.4,10.6,30.12,ENE,64,0.0,22.0,81,0.00,,,0.00,Wunderground v.1.15,2013-02-16 08:00:00,
2013-02-16 03:05:00,15.4,10.6,30.11,ENE,64,1.0,22.0,81,0.00,,,0.00,Wunderground v.1.15,2013-02-16 08:05:00,
2013-02-16 03:10:00,15.4,10.6,30.11,ENE,64,1.0,22.0,81,0.00,,,0.00,Wunderground v.1.15,2013-02-16 08:10:00,
2013-02-16 03:20:00,15.3,10.8,30.11,ENE,64,1.0,22.0,82,0.00,,,0.00,Wunderground v.1.15,2013-02-16 08:20:00,
2013-02-16 03:25:00,15.3,11.1,30.11,ENE,64,0.0,22.0,83,0.00,,,0.00,Wunderground v.1.15,2013-02-16 08:25:00,
2013-02-16 03:30:00,15.3,11.1,30.11,ENE,64,0.0,22.0,83,0.00,,,0.00,Wunderground v.1.15,2013-02-16 08:30:00,
2013-02-16 03:35:00,15.3,11.1,30.10,ENE,64,0.0,22.0,83,0.00,,,0.00,Wunderground v.1.15,2013-02-16 08:35:00,
2013-02-16 03:40:00,15.2,11.2,30.10,ENE,64,1.0,22.0,84,0.00,,,0.00,Wunderground v.1.15,2013-02-16 08:40:00,
2013-02-16 03:50:00,15.0,11.3,30.10,ENE,64,0.0,22.0,85,0.00,,,0.00,Wunderground v.1.15,2013-02-16 08:50:00,
2013-02-16 03:55:00,14.9,11.5,30.10,ENE,64,0.0,22.0,86,0.00,,,0.00,Wunderground v.1.15,2013-02-16 08:55:00,
2013-02-16 04:00:00,14.8,11.6,30.10,ENE,64,0.0,22.0,87,0.00,,,0.00,Wunderground v.1.15,2013-02-16 09:00:00,
2013-02-16 04:05:00,14.7,11.8,30.10,ENE,64,1.0,22.0,88,0.00,,,0.00,Wunderground v.1.15,2013-02-16 09:05:00,
2013-02-16 04:10:00,14.7,11.8,30.10,ENE,64,0.0,22.0,88,0.00,,,0.00,Wunderground v.1.15,2013-02-16 09:10:00,
2013-02-16 04:15:00,14.6,11.7,30.10,ENE,64,0.0,22.0,88,0.00,,,0.00,Wunderground v.1.15,2013-02-16 09:15:00,
2013-02-16 04:25:00,14.6,11.9,30.10,ENE,64,0.0,22.0,89,0.00,,,0.00,Wunderground v.1.15,2013-02-16 09:25:00,
2013-02-16 04:30:00,14.6,11.9,30.10,ENE,64,0.0,22.0,89,0.00,,,0.00,Wunderground v.1.15,2013-02-16 09:30:00,
2013-02-16 04:35:00,14.6,11.9,30.10,ENE,64,0.0,22.0,89,0.00,,,0.00,Wunderground v.1.15,2013-02-16 09:35:00,
2013-02-16 04:40:00,14.6,11.9,30.10,ENE,64,0.0,22.0,89,0.00,,,0.00,Wunderground v.1.15,2013-02-16 09:40:00,
2013-02-16 04:45:00,14.5,11.9,30.10,ENE,64,0.0,22.0,89,0.00,,,0.00,Wunderground v.1.15,2013-02-16 09:45:00,
2013-02-16 04:55:00,14.5,11.9,30.10,ENE,64,0.0,22.0,89,0.00,,,0.00,Wunderground v.1.15,2013-02-16 09:55:00,
2013-02-16 05:00:00,14.5,12.1,30.10,ENE,64,0.0,22.0,90,0.00,,,0.00,Wunderground v.1.15,2013-02-16 10:00:00,
2013-02-16 05:10:00,14.5,12.1,30.10,ENE,64,0.0,22.0,90,0.00,,,0.00,Wunderground v.1.15,2013-02-16 10:10:00,
2013-02-16 05:15:00,14.5,12.1,30.10,ENE,64,0.0,22.0,90,0.00,,,0.00,Wunderground v.1.15,2013-02-16 10:15:00,
2013-02-16 05:25:00,14.5,12.1,30.09,ENE,64,0.0,22.0,90,0.00,,,0.00,Wunderground v.1.15,2013-02-16 10:25:00,
2013-02-16 05:30:00,14.5,12.1,30.09,ENE,64,0.0,22.0,90,0.00,,,0.00,Wunderground v.1.15,2013-02-16 10:30:00,
2013-02-16 05:35:00,14.5,12.1,30.09,ENE,64,0.0,22.0,90,0.00,,,0.00,Wunderground v.1.15,2013-02-16 10:35:00,
2013-02-16 05:40:00,14.4,12.0,30.09,ENE,64,0.0,22.0,90,0.00,,,0.00,Wunderground v.1.15,2013-02-16 10:40:00,
2013-02-16 05:45:00,14.4,12.0,30.09,ENE,64,0.0,22.0,90,0.00,,,0.00,Wunderground v.1.15,2013-02-16 10:45:00,
2013-02-16 05:55:00,14.4,12.0,30.09,ENE,64,0.0,22.0,90,0.00,,,0.00,Wunderground v.1.15,2013-02-16 10:55:00,
2013-02-16 06:00:00,14.4,12.0,30.09,ENE,64,0.0,22.0,90,0.00,,,0.00,Wunderground v.1.15,2013-02-16 11:00:00,
2013-02-16 06:05:00,14.3,11.9,30.09,ENE,64,0.0,22.0,90,0.00,,,0.00,Wunderground v.1.15,2013-02-16 11:05:00,
2013-02-16 06:10:00,14.3,11.9,30.09,ENE,64,0.0,22.0,90,0.00,,,0.00,Wunderground v.1.15,2013-02-16 11:10:00,
2013-02-16 06:15:00,14.4,12.0,30.09,ENE,64,0.0,22.0,90,0.00,,,0.00,Wunderground v.1.15,2013-02-16 11:15:00,
2013-02-16 06:20:00,14.4,12.0,30.09,ENE,64,0.0,22.0,90,0.00,,,0.00,Wunderground v.1.15,2013-02-16 11:20:00,
2013-02-16 06:30:00,14.5,12.1,30.09,ENE,64,0.0,22.0,90,0.00,,,0.00,Wunderground v.1.15,2013-02-16 11:30:00,
2013-02-16 06:35:00,14.5,12.1,30.09,ENE,64,0.0,22.0,90,0.00,,,0.00,Wunderground v.1.15,2013-02-16 11:35:00,
2013-02-16 06:40:00,14.5,12.1,30.09,ENE,64,0.0,22.0,90,0.00,,,0.00,Wunderground v.1.15,2013-02-16 11:40:00,
2013-02-16 06:45:00,14.5,12.1,30.09,ENE,64,0.0,22.0,90,0.00,,,0.00,Wunderground v.1.15,2013-02-16 11:45:00,
2013-02-16 06:50:00,14.4,12.0,30.09,ENE,64,0.0,22.0,90,0.00,,,0.00,Wunderground v.1.15,2013-02-16 11:50:00,
2013-02-16 07:00:00,14.3,12.2,30.09,ENE,64,0.0,22.0,91,0.00,,,0.00,Wunderground v.1.15,2013-02-16 12:00:00,
2013-02-16 07:05:00,14.4,12.3,30.09,ENE,64,0.0,22.0,91,0.00,,,0.00,Wunderground v.1.15,2013-02-16 12:05:00,
2013-02-16 07:10:00,14.5,12.4,30.09,ENE,64,0.0,22.0,91,0.00,,,0.00,Wunderground v.1.15,2013-02-16 12:10:00,
2013-02-16 07:15:00,14.5,12.4,30.09,ENE,64,0.0,22.0,91,0.00,,,0.00,Wunderground v.1.15,2013-02-16 12:15:00,
2013-02-16 07:20:00,14.7,12.6,30.09,ENE,64,0.0,22.0,91,0.00,,,0.00,Wunderground v.1.15,2013-02-16 12:20:00,
2013-02-16 07:25:00,14.8,12.6,30.09,ENE,64,0.0,22.0,91,0.00,,,0.00,Wunderground v.1.15,2013-02-16 12:25:00,
2013-02-16 07:35:00,14.9,12.7,30.09,ENE,64,0.0,22.0,91,0.00,,,0.00,Wunderground v.1.15,2013-02-16 12:35:00,
2013-02-16 07:40:00,14.9,12.7,30.09,ENE,64,1.0,1.0,91,0.00,,,0.00,Wunderground v.1.15,2013-02-16 12:40:00,
2013-02-16 07:45:00,15.0,12.8,30.09,East,88,1.0,2.0,91,0.00,,,0.00,Wunderground v.1.15,2013-02-16 12:45:00,
2013-02-16 07:50:00,15.0,12.8,30.09,East,101,2.0,2.0,91,0.00,,,0.00,Wunderground v.1.15,2013-02-16 12:50:00,
2013-02-16 07:55:00,15.0,12.8,30.09,East,101,1.0,22.0,91,0.00,,,0.00,Wunderground v.1.15,2013-02-16 12:55:00,
2013-02-16 08:05:00,15.1,12.9,30.09,East,101,1.0,22.0,91,0.00,,,0.00,Wunderground v.1.15,2013-02-16 13:05:00,
2013-02-16 08:10:00,15.2,13.0,30.09,East,101,1.0,1.0,91,0.00,,,0.00,Wunderground v.1.15,2013-02-16 13:10:00,
2013-02-16 08:15:00,15.3,13.1,30.09,East,101,1.0,22.0,91,0.00,,,0.00,Wunderground v.1.15,2013-02-16 13:15:00,
2013-02-16 08:20:00,15.3,13.1,30.09,East,101,0.0,22.0,91,0.00,,,0.00,Wunderground v.1.15,2013-02-16 13:20:00,
2013-02-16 08:25:00,15.4,13.2,30.09,ESE,105,0.0,22.0,91,0.00,,,0.00,Wunderground v.1.15,2013-02-16 13:25:00,
2013-02-16 08:30:00,15.4,13.2,30.09,ESE,103,0.0,22.0,91,0.00,,,0.00,Wunderground v.1.15,2013-02-16 13:30:00,
2013-02-16 08:40:00,15.4,13.2,30.09,ESE,103,0.0,22.0,91,0.00,,,0.00,Wunderground v.1.15,2013-02-16 13:40:00,
2013-02-16 08:45:00,15.4,13.2,30.09,East,99,0.0,22.0,91,0.00,,,0.00,Wunderground v.1.15,2013-02-16 13:45:00,
2013-02-16 08:50:00,15.3,13.1,30.09,East,99,0.0,22.0,91,0.00,,,0.00,Wunderground v.1.15,2013-02-16 13:50:00,
2013-02-16 08:55:00,15.3,13.1,30.10,NNE,29,0.0,22.0,91,0.00,,,0.00,Wunderground v.1.15,2013-02-16 13:55:00,
2013-02-16 09:00:00,15.3,13.1,30.10,NE,46,0.0,22.0,91,0.00,,,0.00,Wunderground v.1.15,2013-02-16 14:00:00,
2013-02-16 09:10:00,15.5,13.3,30.10,NE,51,0.0,22.0,91,0.00,,,0.00,Wunderground v.1.15,2013-02-16 14:10:00,
2013-02-16 09:15:00,15.6,13.4,30.09,NE,51,0.0,22.0,91,0.00,,,0.00,Wunderground v.1.15,2013-02-16 14:15:00,
2013-02-16 09:20:00,15.7,13.5,30.10,NE,51,0.0,22.0,91,0.00,,,0.00,Wunderground v.1.15,2013-02-16 14:20:00,
2013-02-16 09:25:00,15.9,13.7,30.10,NE,51,0.0,22.0,91,0.00,,,0.00,Wunderground v.1.15,2013-02-16 14:25:00,
2013-02-16 09:30:00,16.1,13.9,30.10,NE,51,0.0,22.0,91,0.00,,,0.00,Wunderground v.1.15,2013-02-16 14:30:00,
2013-02-16 09:35:00,16.3,14.1,30.10,NE,51,0.0,22.0,91,0.00,,,0.00,Wunderground v.1.15,2013-02-16 14:35:00,
2013-02-16 09:45:00,16.7,14.3,30.10,NNW,333,0.0,22.0,90,0.00,,,0.00,Wunderground v.1.15,2013-02-16 14:45:00,
2013-02-16 09:50:00,17.2,14.8,30.09,ENE,72,0.0,22.0,90,0.00,,,0.00,Wunderground v.1.15,2013-02-16 14:50:00,
2013-02-16 09:55:00,17.5,15.1,30.09,ENE,73,0.0,22.0,90,0.00,,,0.00,Wunderground v.1.15,2013-02-16 14:55:00,
2013-02-16 10:00:00,17.6,14.9,30.09,ENE,73,0.0,22.0,89,0.00,,,0.00,Wunderground v.1.15,2013-02-16 15:00:00,
2013-02-16 10:05:00,17.6,14.7,30.09,North,5,0.0,22.0,88,0.00,,,0.00,Wunderground v.1.15,2013-02-16 15:05:00,
2013-02-16 10:15:00,17.3,13.8,30.10,NNW,329,2.0,2.0,86,0.00,,,0.00,Wunderground v.1.15,2013-02-16 15:15:00,
2013-02-16 10:20:00,17.4,13.7,30.10,NW,318,1.0,1.0,85,0.00,,,0.00,Wunderground v.1.15,2013-02-16 15:20:00,
2013-02-16 10:25:00,17.6,13.9,30.10,NE,34,1.0,22.0,85,0.00,,,0.00,Wunderground v.1.15,2013-02-16 15:25:00,
2013-02-16 10:30:00,17.7,14.2,30.10,ENE,63,1.0,1.0,86,0.00,,,0.00,Wunderground v.1.15,2013-02-16 15:30:00,
2013-02-16 10:35:00,17.8,14.1,30.10,West,271,0.0,22.0,85,0.00,,,0.00,Wunderground v.1.15,2013-02-16 15:35:00,
2013-02-16 10:40:00,18.1,14.1,30.10,NW,323,0.0,22.0,84,0.00,,,0.00,Wunderground v.1.15,2013-02-16 15:40:00,
2013-02-16 10:50:00,18.7,14.1,30.10,NW,311,1.0,22.0,82,0.00,,,0.00,Wunderground v.1.15,2013-02-16 15:50:00,
2013-02-16 10:55:00,18.9,14.0,30.10,NW,319,1.0,22.0,81,0.00,,,0.00,Wunderground v.1.15,2013-02-16 15:55:00,
2013-02-16 11:00:00,19.1,13.9,30.10,WNW,294,1.0,22.0,80,0.00,,,0.00,Wunderground v.1.15,2013-02-16 16:00:00,
2013-02-16 11:05:00,18.8,13.1,30.10,NNW,344,2.0,22.0,78,0.00,,,0.00,Wunderground v.1.15,2013-02-16 16:05:00,
2013-02-16 11:10:00,18.5,12.5,30.10,NW,318,2.0,22.0,77,0.00,,,0.00,Wunderground v.1.15,2013-02-16 16:10:00,
2013-02-16 11:20:00,17.5,10.9,30.10,NNW,334,2.0,2.0,75,0.00,,,0.00,Wunderground v.1.15,2013-02-16 16:20:00,
2013-02-16 11:25:00,17.5,10.9,30.10,NW,318,2.0,22.0,75,0.00,,,0.00,Wunderground v.1.15,2013-02-16 16:25:00,
2013-02-16 11:35:00,18.0,11.1,30.11,ENE,65,1.0,22.0,74,0.00,,,0.00,Wunderground v.1.15,2013-02-16 16:35:00,
2013-02-16 11:40:00,18.0,10.8,30.11,NW,323,0.0,22.0,73,0.00,,,0.00,Wunderground v.1.15,2013-02-16 16:40:00,
2013-02-16 11:45:00,18.5,11.3,30.11,NW,325,0.0,22.0,73,0.00,,,0.00,Wunderground v.1.15,2013-02-16 16:45:00,
2013-02-16 11:50:00,19.2,11.6,30.11,NW,309,0.0,22.0,72,0.00,,,0.00,Wunderground v.1.15,2013-02-16 16:50:00,
2013-02-16 11:55:00,18.9,11.4,30.10,NE,46,1.0,22.0,72,0.00,,,0.00,Wunderground v.1.15,2013-02-16 16:55:00,
2013-02-16 12:00:00,18.6,10.8,30.11,NNW,347,2.0,22.0,71,0.00,,,0.00,Wunderground v.1.15,2013-02-16 17:00:00,
2013-02-16 12:10:00,18.3,10.1,30.10,NNE,17,1.0,1.0,70,0.00,,,0.00,Wunderground v.1.15,2013-02-16 17:10:00,
2013-02-16 12:15:00,19.0,11.8,30.10,NNW,330,0.0,2.0,73,0.00,,,0.00,Wunderground v.1.15,2013-02-16 17:15:00,
2013-02-16 12:20:00,18.6,10.1,30.10,North,349,2.0,22.0,69,0.00,,,0.00,Wunderground v.1.15,2013-02-16 17:20:00,
2013-02-16 12:25:00,18.5,8.7,30.10,NNW,344,2.0,22.0,65,0.00,,,0.00,Wunderground v.1.15,2013-02-16 17:25:00,
2013-02-16 12:30:00,19.0,9.8,30.10,NW,306,1.0,1.0,67,0.00,,,0.00,Wunderground v.1.15,2013-02-16 17:30:00,
2013-02-16 18:05:00,14.3,6.6,30.15,NNW,334,1.0,1.0,71,0.00,,,0.00,Wunderground v.1.15,2013-02-16 23:05:00,
2013-02-16 18:10:00,14.2,6.5,30.15,NW,318,1.0,1.0,71,0.00,,,0.00,Wunderground v.1.15,2013-02-16 23:10:00,
2013-02-16 18:15:00,14.0,6.3,30.15,NW,318,0.0,22.0,71,0.00,,,0.00,Wunderground v.1.15,2013-02-16 23:15:00,
2013-02-16 18:25:00,13.7,6.3,30.16,NW,321,0.0,22.0,72,0.00,,,0.00,Wunderground v.1.15,2013-02-16 23:25:00,
2013-02-16 18:30:00,13.5,6.1,30.16,NW,323,0.0,22.0,72,0.00,,,0.00,Wunderground v.1.15,2013-02-16 23:30:00,
2013-02-16 18:35:00,13.1,5.8,30.16,NW,326,0.0,22.0,72,0.00,,,0.00,Wunderground v.1.15,2013-02-16 23:35:00,
2013-02-16 18:45:00,12.6,5.9,30.16,NNW,330,0.0,22.0,74,0.00,,,0.00,Wunderground v.1.15,2013-02-16 23:45:00,
2013-02-16 18:50:00,12.5,5.8,30.17,NNW,331,0.0,22.0,74,0.00,,,0.00,Wunderground v.1.15,2013-02-16 23:50:00,
2013-02-16 18:55:00,12.2,5.5,30.17,NNW,330,0.0,22.0,74,0.00,,,0.00,Wunderground v.1.15,2013-02-16 23:55:00,
2013-02-16 19:00:00,11.9,5.5,30.17,NNW,331,0.0,22.0,75,0.00,,,0.00,Wunderground v.1.15,2013-02-17 00:00:00,
2013-02-16 19:05:00,11.7,5.3,30.17,NNW,331,0.0,22.0,75,0.00,,,0.00,Wunderground v.1.15,2013-02-17 00:05:00,
2013-02-16 19:15:00,11.6,5.5,30.18,NNE,26,0.0,22.0,76,0.00,,,0.00,Wunderground v.1.15,2013-02-17 00:15:00,
2013-02-16 19:20:00,11.5,5.4,30.17,NNE,24,0.0,22.0,76,0.00,,,0.00,Wunderground v.1.15,2013-02-17 00:20:00,
2013-02-16 19:25:00,11.6,5.2,30.17,NNE,33,0.0,22.0,75,0.00,,,0.00,Wunderground v.1.15,2013-02-17 00:25:00,
2013-02-16 19:30:00,11.9,5.5,30.18,NNE,33,0.0,22.0,75,0.00,,,0.00,Wunderground v.1.15,2013-02-17 00:30:00,
2013-02-16 19:35:00,12.0,5.6,30.18,NE,49,0.0,22.0,75,0.00,,,0.00,Wunderground v.1.15,2013-02-17 00:35:00,
2013-02-16 19:40:00,12.0,5.6,30.18,NE,50,0.0,22.0,75,0.00,,,0.00,Wunderground v.1.15,2013-02-17 00:40:00,
2013-02-16 19:50:00,11.9,5.2,30.18,NE,53,0.0,22.0,74,0.00,,,0.00,Wunderground v.1.15,2013-02-17 00:50:00,
2013-02-16 19:55:00,11.4,5.0,30.18,NE,52,0.0,22.0,75,0.00,,,0.00,Wunderground v.1.15,2013-02-17 00:55:00,
2013-02-16 20:00:00,11.0,4.9,30.18,NE,53,0.0,22.0,76,0.00,,,0.00,Wunderground v.1.15,2013-02-17 01:00:00,
2013-02-16 20:05:00,10.8,5.0,30.18,NE,52,0.0,22.0,77,0.00,,,0.00,Wunderground v.1.15,2013-02-17 01:05:00,
2013-02-16 20:10:00,10.5,4.7,30.18,NE,52,0.0,22.0,77,0.00,,,0.00,Wunderground v.1.15,2013-02-17 01:10:00,
2013-02-16 20:20:00,10.0,4.5,30.18,NE,53,0.0,22.0,78,0.00,,,0.00,Wunderground v.1.15,2013-02-17 01:20:00,
2013-02-16 20:25:00,9.9,4.4,30.18,NE,53,0.0,22.0,78,0.00,,,0.00,Wunderground v.1.15,2013-02-17 01:25:00,
2013-02-16 20:30:00,9.7,4.5,30.18,NE,52,0.0,22.0,79,0.00,,,0.00,Wunderground v.1.15,2013-02-17 01:30:00,
2013-02-16 20:35:00,9.6,4.4,30.18,NE,53,0.0,22.0,79,0.00,,,0.00,Wunderground v.1.15,2013-02-17 01:35:00,
2013-02-16 20:40:00,9.7,4.5,30.18,NE,53,0.0,22.0,79,0.00,,,0.00,Wunderground v.1.15,2013-02-17 01:40:00,
2013-02-16 20:45:00,9.7,4.5,30.18,NE,52,0.0,22.0,79,0.00,,,0.00,Wunderground v.1.15,2013-02-17 01:45:00,
2013-02-16 20:55:00,9.5,4.6,30.18,NE,52,0.0,22.0,80,0.00,,,0.00,Wunderground v.1.15,2013-02-17 01:55:00,
2013-02-16 21:00:00,9.4,4.5,30.18,NE,53,0.0,22.0,80,0.00,,,0.00,Wunderground v.1.15,2013-02-17 02:00:00,
2013-02-16 21:05:00,9.4,4.5,30.18,NE,52,0.0,22.0,80,0.00,,,0.00,Wunderground v.1.15,2013-02-17 02:05:00,
2013-02-16 21:10:00,9.5,4.6,30.18,NE,52,0.0,22.0,80,0.00,,,0.00,Wunderground v.1.15,2013-02-17 02:10:00,
2013-02-16 21:15:00,9.7,4.8,30.19,NE,53,0.0,22.0,80,0.00,,,0.00,Wunderground v.1.15,2013-02-17 02:15:00,
2013-02-16 21:25:00,10.0,5.1,30.18,NE,53,0.0,22.0,80,0.00,,,0.00,Wunderground v.1.15,2013-02-17 02:25:00,
2013-02-16 21:30:00,10.3,5.4,30.18,NE,52,0.0,22.0,80,0.00,,,0.00,Wunderground v.1.15,2013-02-17 02:30:00,
2013-02-16 21:35:00,10.4,5.5,30.19,NE,53,0.0,22.0,80,0.00,,,0.00,Wunderground v.1.15,2013-02-17 02:35:00,
2013-02-16 21:40:00,10.6,5.4,30.18,NE,52,0.0,22.0,79,0.00,,,0.00,Wunderground v.1.15,2013-02-17 02:40:00,
2013-02-16 21:45:00,10.8,5.6,30.18,NE,52,0.0,22.0,79,0.00,,,0.00,Wunderground v.1.15,2013-02-17 02:45:00,
2013-02-16 21:50:00,10.9,5.4,30.19,NE,53,0.0,22.0,78,0.00,,,0.00,Wunderground v.1.15,2013-02-17 02:50:00,
2013-02-16 22:00:00,11.0,5.2,30.19,NE,56,1.0,22.0,77,0.00,,,0.00,Wunderground v.1.15,2013-02-17 03:00:00,
2013-02-16 22:05:00,11.1,5.0,30.19,ENE,57,1.0,22.0,76,0.00,,,0.00,Wunderground v.1.15,2013-02-17 03:05:00,
2013-02-16 22:10:00,11.2,5.4,30.19,NE,46,1.0,22.0,77,0.00,,,0.00,Wunderground v.1.15,2013-02-17 03:10:00,